Location: Newark
(60.5925°N, 45.5911°E)
Time: 20:57:20
(UTC+00:00)

Envisat - Pass Details

Date: 23 September 2019
Orbit: 764 x 766 km, 98.1° (Epoch: 13 October)

Event Time Altitude Azimuth Distance (km) Brightness Sun altitude
Rises 15:55:17 0° 198° (SSW) 3,227 6.3 -8.0°
Reaches altitude 10° 15:57:52 10° 209° (SSW) 2,305 5.7 -8.4°
Maximum altitude 16:02:15 29° 269° (W) 1,395 5.3 -8.9°
Drops below altitude 10° 16:06:40 10° 329° (NNW) 2,318 6.3 -9.4°
Sets 16:09:18 0° 341° (NNW) 3,249 6.8 -9.7°
